Time,TemperatureF,DewpointF,PressureIn,WindDirection,WindDirectionDegrees,WindSpeedMPH,WindSpeedGustMPH,Humidity,HourlyPrecipIn,Conditions,Clouds,dailyrainin,SoftwareType,DateUTC
2013-07-02 00:01:00,73.0,64.7,29.91,North,0,0.0,0.0,75,0.00,,,0.00,WUHU21623XXSP,2013-07-02 05:01:00,
2013-07-02 00:06:00,73.0,64.7,29.91,North,0,0.0,0.0,75,0.00,,,0.00,WUHU21623XXSP,2013-07-02 05:06:00,
2013-07-02 00:11:00,72.9,64.9,29.91,North,0,0.0,0.0,76,0.00,,,0.00,WUHU21623XXSP,2013-07-02 05:11:00,
2013-07-02 00:16:00,72.7,64.7,29.91,North,0,0.0,0.0,76,0.00,,,0.00,WUHU21623XXSP,2013-07-02 05:16:00,
2013-07-02 00:21:00,72.7,65.1,29.91,North,0,0.0,0.0,77,0.00,,,0.00,WUHU21623XXSP,2013-07-02 05:21:00,
2013-07-02 00:26:00,72.3,64.5,29.91,North,0,0.0,0.0,76,0.00,,,0.00,WUHU21623XXSP,2013-07-02 05:26:00,
2013-07-02 00:31:00,72.3,64.3,29.91,North,0,0.0,0.0,76,0.00,,,0.00,WUHU21623XXSP,2013-07-02 05:31:00,
2013-07-02 00:36:00,72.1,64.5,29.91,North,0,0.0,0.0,77,0.00,,,0.00,WUHU21623XXSP,2013-07-02 05:36:00,
2013-07-02 00:41:00,72.1,64.9,29.90,North,0,0.0,0.0,78,0.00,,,0.00,WUHU21623XXSP,2013-07-02 05:41:00,
2013-07-02 00:46:00,72.0,64.7,29.90,North,0,0.0,0.0,78,0.00,,,0.00,WUHU21623XXSP,2013-07-02 05:46:00,
2013-07-02 00:51:00,71.8,64.5,29.91,North,0,0.0,0.0,78,0.00,,,0.00,WUHU21623XXSP,2013-07-02 05:51:00,
2013-07-02 00:56:00,71.8,64.5,29.90,North,0,0.0,0.0,78,0.00,,,0.00,WUHU21623XXSP,2013-07-02 05:56:00,
2013-07-02 01:01:00,71.6,64.4,29.90,North,0,0.0,0.0,78,0.00,,,0.00,WUHU21623XXSP,2013-07-02 06:01:00,
2013-07-02 01:06:00,71.4,64.2,29.91,North,0,0.0,0.0,78,0.00,,,0.00,WUHU21623XXSP,2013-07-02 06:06:00,
2013-07-02 01:11:00,71.2,64.0,29.90,North,0,0.0,0.0,78,0.00,,,0.00,WUHU21623XXSP,2013-07-02 06:11:00,
2013-07-02 01:16:00,71.2,64.4,29.90,North,0,0.0,0.0,79,0.00,,,0.00,WUHU21623XXSP,2013-07-02 06:16:00,
2013-07-02 01:21:00,71.1,64.2,29.90,North,0,0.0,0.0,79,0.00,,,0.00,WUHU21623XXSP,2013-07-02 06:21:00,
2013-07-02 01:26:00,70.9,64.0,29.90,North,0,0.0,0.0,79,0.00,,,0.00,WUHU21623XXSP,2013-07-02 06:26:00,
2013-07-02 01:31:00,70.9,64.0,29.90,North,0,0.0,0.0,79,0.00,,,0.00,WUHU21623XXSP,2013-07-02 06:31:00,
2013-07-02 01:36:00,70.7,64.2,29.90,North,0,0.0,0.0,80,0.00,,,0.00,WUHU21623XXSP,2013-07-02 06:36:00,
2013-07-02 01:41:00,70.5,64.0,29.90,North,0,0.0,0.0,80,0.00,,,0.00,WUHU21623XXSP,2013-07-02 06:41:00,
2013-07-02 01:46:00,70.5,64.0,29.90,North,0,0.0,0.0,80,0.00,,,0.00,WUHU21623XXSP,2013-07-02 06:46:00,
2013-07-02 01:51:00,70.3,63.9,29.90,North,0,0.0,0.0,80,0.00,,,0.00,WUHU21623XXSP,2013-07-02 06:51:00,
2013-07-02 01:56:00,70.3,64.2,29.90,North,0,0.0,0.0,81,0.00,,,0.00,WUHU21623XXSP,2013-07-02 06:56:00,
2013-07-02 02:01:00,70.3,64.2,29.90,North,0,0.0,0.0,81,0.00,,,0.00,WUHU21623XXSP,2013-07-02 07:01:00,
2013-07-02 02:06:00,70.2,64.0,29.90,North,0,0.0,0.0,81,0.00,,,0.00,WUHU21623XXSP,2013-07-02 07:06:00,
2013-07-02 02:11:00,70.0,63.8,29.90,North,0,0.0,0.0,81,0.00,,,0.00,WUHU21623XXSP,2013-07-02 07:11:00,
2013-07-02 02:16:00,70.0,63.8,29.90,North,0,0.0,0.0,81,0.00,,,0.00,WUHU21623XXSP,2013-07-02 07:16:00,
2013-07-02 02:21:00,69.8,63.7,29.91,North,0,0.0,0.0,81,0.00,,,0.00,WUHU21623XXSP,2013-07-02 07:21:00,
2013-07-02 02:26:00,69.8,64.0,29.90,North,0,0.0,0.0,82,0.00,,,0.00,WUHU21623XXSP,2013-07-02 07:26:00,
2013-07-02 02:31:00,69.6,63.8,29.90,North,0,0.0,0.0,82,0.00,,,0.00,WUHU21623XXSP,2013-07-02 07:31:00,
2013-07-02 02:36:00,69.6,63.8,29.90,North,0,0.0,0.0,82,0.00,,,0.00,WUHU21623XXSP,2013-07-02 07:36:00,
2013-07-02 02:41:00,69.6,63.8,29.90,North,0,0.0,0.0,82,0.00,,,0.00,WUHU21623XXSP,2013-07-02 07:41:00,
2013-07-02 02:46:00,69.6,63.8,29.90,North,0,0.0,0.0,82,0.00,,,0.00,WUHU21623XXSP,2013-07-02 07:46:00,
2013-07-02 02:51:00,69.4,63.7,29.90,North,0,0.0,0.0,82,0.00,,,0.00,WUHU21623XXSP,2013-07-02 07:51:00,
2013-07-02 02:56:00,69.3,63.5,29.90,North,0,0.0,0.0,82,0.00,,,0.00,WUHU21623XXSP,2013-07-02 07:56:00,
2013-07-02 03:01:00,69.3,63.5,29.91,North,0,0.0,0.0,82,0.00,,,0.00,WUHU21623XXSP,2013-07-02 08:01:00,
2013-07-02 03:06:00,69.1,63.3,29.91,North,0,0.0,0.0,82,0.00,,,0.00,WUHU21623XXSP,2013-07-02 08:06:00,
2013-07-02 03:11:00,69.1,63.7,29.91,North,0,0.0,0.0,83,0.00,,,0.00,WUHU21623XXSP,2013-07-02 08:11:00,
2013-07-02 03:16:00,69.1,63.7,29.91,North,0,0.0,0.0,83,0.00,,,0.00,WUHU21623XXSP,2013-07-02 08:16:00,
2013-07-02 03:21:00,68.9,63.5,29.90,North,0,0.0,0.0,83,0.00,,,0.00,WUHU21623XXSP,2013-07-02 08:21:00,
2013-07-02 03:26:00,68.9,63.5,29.90,North,0,0.0,0.0,83,0.00,,,0.00,WUHU21623XXSP,2013-07-02 08:26:00,
2013-07-02 03:31:00,68.7,63.7,29.90,North,0,0.0,0.0,84,0.00,,,0.00,WUHU21623XXSP,2013-07-02 08:31:00,
2013-07-02 03:36:00,68.7,63.7,29.91,North,0,0.0,0.0,84,0.00,,,0.00,WUHU21623XXSP,2013-07-02 08:36:00,
2013-07-02 03:41:00,68.7,63.7,29.91,North,0,0.0,0.0,84,0.00,,,0.00,WUHU21623XXSP,2013-07-02 08:41:00,
2013-07-02 03:46:00,68.7,63.7,29.91,North,0,0.0,0.0,84,0.00,,,0.00,WUHU21623XXSP,2013-07-02 08:46:00,
2013-07-02 03:51:00,68.5,63.5,29.91,North,0,0.0,0.0,84,0.00,,,0.00,WUHU21623XXSP,2013-07-02 08:51:00,
2013-07-02 03:56:00,68.5,63.5,29.91,North,0,0.0,0.0,84,0.00,,,0.00,WUHU21623XXSP,2013-07-02 08:56:00,
2013-07-02 04:01:00,68.5,63.5,29.91,North,0,0.0,0.0,84,0.00,,,0.00,WUHU21623XXSP,2013-07-02 09:01:00,
2013-07-02 04:06:00,68.4,63.7,29.91,North,0,0.0,0.0,85,0.00,,,0.00,WUHU21623XXSP,2013-07-02 09:06:00,
2013-07-02 04:11:00,68.4,63.7,29.91,North,0,0.0,0.0,85,0.00,,,0.00,WUHU21623XXSP,2013-07-02 09:11:00,
2013-07-02 04:16:00,68.4,63.7,29.91,North,0,0.0,0.0,85,0.00,,,0.00,WUHU21623XXSP,2013-07-02 09:16:00,
2013-07-02 04:21:00,68.2,63.5,29.92,North,0,0.0,0.0,85,0.00,,,0.00,WUHU21623XXSP,2013-07-02 09:21:00,
2013-07-02 04:26:00,68.2,63.5,29.92,North,0,0.0,0.0,85,0.00,,,0.00,WUHU21623XXSP,2013-07-02 09:26:00,
2013-07-02 04:31:00,68.2,63.5,29.92,North,0,0.0,0.0,85,0.00,,,0.00,WUHU21623XXSP,2013-07-02 09:31:00,
2013-07-02 04:36:00,68.2,63.5,29.92,North,0,0.0,0.0,85,0.00,,,0.00,WUHU21623XXSP,2013-07-02 09:36:00,
2013-07-02 04:41:00,68.4,64.0,29.92,North,0,0.0,0.0,86,0.00,,,0.00,WUHU21623XXSP,2013-07-02 09:41:00,
2013-07-02 04:46:00,68.4,64.0,29.92,North,0,0.0,0.0,86,0.00,,,0.00,WUHU21623XXSP,2013-07-02 09:46:00,
2013-07-02 04:51:00,68.4,64.0,29.92,North,0,0.0,0.0,86,0.00,,,0.00,WUHU21623XXSP,2013-07-02 09:51:00,
2013-07-02 04:56:00,68.4,63.7,29.92,North,0,0.0,0.0,85,0.00,,,0.00,WUHU21623XXSP,2013-07-02 09:56:00,
2013-07-02 05:01:00,68.4,63.7,29.92,North,0,0.0,0.0,85,0.00,,,0.00,WUHU21623XXSP,2013-07-02 10:01:00,
2013-07-02 05:06:00,68.4,63.7,29.93,North,0,0.0,0.0,85,0.00,,,0.00,WUHU21623XXSP,2013-07-02 10:06:00,
2013-07-02 05:11:00,68.4,63.7,29.93,North,0,0.0,0.0,85,0.00,,,0.00,WUHU21623XXSP,2013-07-02 10:11:00,
2013-07-02 05:16:00,68.4,63.7,29.93,North,0,0.0,0.0,85,0.00,,,0.00,WUHU21623XXSP,2013-07-02 10:16:00,
2013-07-02 05:21:00,68.4,63.7,29.93,North,0,0.0,0.0,85,0.00,,,0.00,WUHU21623XXSP,2013-07-02 10:21:00,
2013-07-02 05:26:00,68.4,63.7,29.93,North,0,0.0,0.0,85,0.00,,,0.00,WUHU21623XXSP,2013-07-02 10:26:00,
2013-07-02 05:31:00,68.4,63.7,29.93,North,0,0.0,0.0,85,0.00,,,0.00,WUHU21623XXSP,2013-07-02 10:31:00,
2013-07-02 05:36:00,68.4,63.7,29.93,North,0,0.0,0.0,85,0.00,,,0.00,WUHU21623XXSP,2013-07-02 10:36:00,
2013-07-02 05:41:00,68.4,63.7,29.93,North,0,0.0,0.0,85,0.00,,,0.00,WUHU21623XXSP,2013-07-02 10:41:00,
2013-07-02 05:46:00,68.4,63.7,29.94,North,0,0.0,0.0,85,0.00,,,0.00,WUHU21623XXSP,2013-07-02 10:46:00,
2013-07-02 05:51:00,68.4,63.7,29.93,North,0,0.0,0.0,85,0.00,,,0.00,WUHU21623XXSP,2013-07-02 10:51:00,
2013-07-02 05:56:00,68.4,63.7,29.94,North,0,0.0,0.0,85,0.00,,,0.00,WUHU21623XXSP,2013-07-02 10:56:00,
2013-07-02 06:01:00,68.4,63.7,29.93,North,0,0.0,0.0,85,0.00,,,0.00,WUHU21623XXSP,2013-07-02 11:01:00,
2013-07-02 06:06:00,68.2,63.5,29.94,North,0,0.0,0.0,85,0.00,,,0.00,WUHU21623XXSP,2013-07-02 11:06:00,
2013-07-02 06:11:00,68.2,63.8,29.93,North,0,0.0,0.0,86,0.00,,,0.00,WUHU21623XXSP,2013-07-02 11:11:00,
2013-07-02 06:16:00,68.2,63.8,29.94,North,0,0.0,0.0,86,0.00,,,0.00,WUHU21623XXSP,2013-07-02 11:16:00,
2013-07-02 06:21:00,68.2,63.8,29.94,North,0,0.0,0.0,86,0.00,,,0.00,WUHU21623XXSP,2013-07-02 11:21:00,
2013-07-02 06:26:00,68.2,63.8,29.94,North,0,0.0,0.0,86,0.00,,,0.00,WUHU21623XXSP,2013-07-02 11:26:00,
2013-07-02 06:31:00,68.2,63.8,29.94,North,0,0.0,0.0,86,0.00,,,0.00,WUHU21623XXSP,2013-07-02 11:31:00,
2013-07-02 06:36:00,68.2,64.0,29.94,North,0,0.0,0.0,86,0.00,,,0.00,WUHU21623XXSP,2013-07-02 11:36:00,
2013-07-02 06:41:00,68.4,64.0,29.95,North,0,0.0,0.0,86,0.00,,,0.00,WUHU21623XXSP,2013-07-02 11:41:00,
2013-07-02 06:46:00,68.4,64.0,29.95,North,0,0.0,0.0,86,0.00,,,0.00,WUHU21623XXSP,2013-07-02 11:46:00,
2013-07-02 06:51:00,68.5,64.1,29.95,North,0,0.0,0.0,86,0.00,,,0.00,WUHU21623XXSP,2013-07-02 11:51:00,
2013-07-02 06:56:00,68.7,64.3,29.95,North,0,0.0,0.0,86,0.00,,,0.00,WUHU21623XXSP,2013-07-02 11:56:00,
2013-07-02 07:01:00,68.7,64.3,29.95,North,0,0.0,0.0,86,0.00,,,0.00,WUHU21623XXSP,2013-07-02 12:01:00,
2013-07-02 07:06:00,68.9,64.5,29.95,North,0,0.0,0.0,86,0.00,,,0.00,WUHU21623XXSP,2013-07-02 12:06:00,
2013-07-02 07:11:00,69.1,65.0,29.96,North,0,0.0,0.0,87,0.00,,,0.00,WUHU21623XXSP,2013-07-02 12:11:00,
2013-07-02 07:16:00,69.4,65.4,29.95,North,0,0.0,0.0,87,0.00,,,0.00,WUHU21623XXSP,2013-07-02 12:16:00,
2013-07-02 07:21:00,69.6,65.4,29.96,North,0,0.0,0.0,87,0.00,,,0.00,WUHU21623XXSP,2013-07-02 12:21:00,
2013-07-02 07:26:00,70.0,65.9,29.97,North,0,0.0,0.0,87,0.00,,,0.00,WUHU21623XXSP,2013-07-02 12:26:00,
2013-07-02 07:31:00,70.3,65.9,29.96,North,0,0.0,0.0,86,0.00,,,0.00,WUHU21623XXSP,2013-07-02 12:31:00,
2013-07-02 07:36:00,70.5,65.9,29.97,North,0,0.0,0.0,87,0.00,,,0.00,WUHU21623XXSP,2013-07-02 12:36:00,
2013-07-02 07:41:00,70.4,66.3,29.97,North,0,0.0,0.0,87,0.00,,,0.00,WUHU21623XXSP,2013-07-02 12:41:00,
2013-07-02 07:46:00,71.2,66.8,29.97,North,0,0.0,0.0,86,0.00,,,0.00,WUHU21623XXSP,2013-07-02 12:46:00,
2013-07-02 07:51:00,71.4,67.3,29.97,North,0,0.0,0.0,87,0.00,,,0.00,WUHU21623XXSP,2013-07-02 12:51:00,
2013-07-02 07:56:00,72.1,67.7,29.97,North,0,0.0,0.0,86,0.00,,,0.00,WUHU21623XXSP,2013-07-02 12:56:00,
2013-07-02 08:01:00,72.5,67.9,29.97,North,0,0.0,0.0,86,0.00,,,0.00,WUHU21623XXSP,2013-07-02 13:01:00,
2013-07-02 08:06:00,73.0,68.6,29.98,North,0,0.0,0.0,86,0.00,,,0.00,WUHU21623XXSP,2013-07-02 13:06:00,
2013-07-02 08:11:00,73.2,68.5,29.98,North,0,0.0,0.0,85,0.00,,,0.00,WUHU21623XXSP,2013-07-02 13:11:00,
2013-07-02 08:16:00,73.9,68.8,29.98,North,0,0.0,0.0,84,0.00,,,0.00,WUHU21623XXSP,2013-07-02 13:16:00,
2013-07-02 08:21:00,74.5,69.2,29.98,North,0,0.0,0.0,83,0.00,,,0.00,WUHU21623XXSP,2013-07-02 13:21:00,
2013-07-02 08:26:00,75.0,69.2,29.98,North,0,0.0,0.0,82,0.00,,,0.00,WUHU21623XXSP,2013-07-02 13:26:00,
2013-07-02 08:31:00,75.6,69.7,29.98,North,0,0.0,0.0,82,0.00,,,0.00,WUHU21623XXSP,2013-07-02 13:31:00,
2013-07-02 08:36:00,75.9,69.7,29.98,North,0,0.0,0.0,81,0.00,,,0.00,WUHU21623XXSP,2013-07-02 13:36:00,
2013-07-02 08:41:00,76.5,69.9,29.98,North,0,0.0,0.0,80,0.00,,,0.00,WUHU21623XXSP,2013-07-02 13:41:00,
2013-07-02 08:46:00,76.8,70.0,29.98,North,0,0.0,0.0,80,0.00,,,0.00,WUHU21623XXSP,2013-07-02 13:46:00,
2013-07-02 08:51:00,77.2,70.1,29.98,North,0,0.0,0.0,79,0.00,,,0.00,WUHU21623XXSP,2013-07-02 13:51:00,
2013-07-02 08:56:00,77.7,70.1,29.98,North,0,0.0,0.0,78,0.00,,,0.00,WUHU21623XXSP,2013-07-02 13:56:00,
2013-07-02 09:01:00,78.1,70.5,29.98,North,0,0.0,0.0,78,0.00,,,0.00,WUHU21623XXSP,2013-07-02 14:01:00,
2013-07-02 09:06:00,78.4,70.6,29.98,North,0,0.0,0.0,77,0.00,,,0.00,WUHU21623XXSP,2013-07-02 14:06:00,
2013-07-02 09:11:00,78.8,70.2,29.99,North,0,0.0,0.0,75,0.00,,,0.00,WUHU21623XXSP,2013-07-02 14:11:00,
2013-07-02 09:16:00,79.2,70.1,29.98,North,0,0.0,0.0,74,0.00,,,0.00,WUHU21623XXSP,2013-07-02 14:16:00,
2013-07-02 09:21:00,79.5,70.3,29.98,North,0,0.0,0.0,73,0.00,,,0.00,WUHU21623XXSP,2013-07-02 14:21:00,
2013-07-02 09:26:00,79.9,70.4,29.98,North,0,0.0,0.0,73,0.00,,,0.00,WUHU21623XXSP,2013-07-02 14:26:00,
2013-07-02 09:31:00,80.2,70.4,29.98,North,0,0.0,0.0,72,0.00,,,0.00,WUHU21623XXSP,2013-07-02 14:31:00,
2013-07-02 09:36:00,80.4,70.6,29.98,North,0,0.0,0.0,72,0.00,,,0.00,WUHU21623XXSP,2013-07-02 14:36:00,
2013-07-02 09:37:00,80.4,70.6,29.98,North,0,0.0,0.0,72,0.00,,,0.00,WUHU21623XXSP,2013-07-02 14:37:00,
2013-07-02 09:42:00,80.8,70.1,29.98,North,0,0.0,0.0,70,0.00,,,0.00,WUHU21623XXSP,2013-07-02 14:42:00,
2013-07-02 09:47:00,81.1,70.9,29.98,North,0,0.0,0.0,71,0.00,,,0.00,WUHU21623XXSP,2013-07-02 14:47:00,
2013-07-02 09:52:00,81.3,69.7,29.98,North,0,0.0,0.0,68,0.00,,,0.00,WUHU21623XXSP,2013-07-02 14:52:00,
2013-07-02 09:57:00,81.7,70.5,29.98,North,0,0.0,0.0,69,0.00,,,0.00,WUHU21623XXSP,2013-07-02 14:57:00,
2013-07-02 10:02:00,81.9,70.2,29.98,North,0,0.0,0.0,68,0.00,,,0.00,WUHU21623XXSP,2013-07-02 15:02:00,
2013-07-02 10:07:00,82.0,69.5,29.98,North,0,0.0,0.0,66,0.00,,,0.00,WUHU21623XXSP,2013-07-02 15:07:00,
2013-07-02 10:12:00,82.2,70.1,29.98,North,0,0.0,0.0,67,0.00,,,0.00,WUHU21623XXSP,2013-07-02 15:12:00,
2013-07-02 10:17:00,82.2,70.1,29.98,North,0,0.0,0.0,67,0.00,,,0.00,WUHU21623XXSP,2013-07-02 15:17:00,
2013-07-02 10:22:00,82.6,70.0,29.98,North,0,0.0,0.0,66,0.00,,,0.00,WUHU21623XXSP,2013-07-02 15:22:00,
2013-07-02 10:27:00,82.8,69.7,29.98,North,0,0.0,0.0,65,0.00,,,0.00,WUHU21623XXSP,2013-07-02 15:27:00,
2013-07-02 10:32:00,82.8,69.7,29.98,North,0,0.0,0.0,65,0.00,,,0.00,WUHU21623XXSP,2013-07-02 15:32:00,
2013-07-02 10:37:00,83.1,70.5,29.98,North,0,0.0,0.0,66,0.00,,,0.00,WUHU21623XXSP,2013-07-02 15:37:00,
2013-07-02 10:42:00,83.3,69.8,29.98,North,0,0.0,0.0,64,0.00,,,0.00,WUHU21623XXSP,2013-07-02 15:42:00,
2013-07-02 10:47:00,83.7,70.2,29.98,North,0,0.0,0.0,64,0.00,,,0.00,WUHU21623XXSP,2013-07-02 15:47:00,
2013-07-02 10:52:00,83.8,70.2,29.98,North,0,0.0,0.0,64,0.00,,,0.00,WUHU21623XXSP,2013-07-02 15:52:00,
2013-07-02 10:57:00,84.0,71.0,29.98,North,0,0.0,0.0,65,0.00,,,0.00,WUHU21623XXSP,2013-07-02 15:57:00,
2013-07-02 11:02:00,84.2,71.0,29.98,North,0,0.0,0.0,65,0.00,,,0.00,WUHU21623XXSP,2013-07-02 16:02:00,
2013-07-02 11:07:00,84.4,70.4,29.98,North,0,0.0,0.0,63,0.00,,,0.00,WUHU21623XXSP,2013-07-02 16:07:00,
2013-07-02 11:12:00,84.6,71.0,29.98,North,0,0.0,0.0,64,0.00,,,0.00,WUHU21623XXSP,2013-07-02 16:12:00,
2013-07-02 11:17:00,84.9,71.4,29.98,North,0,0.0,0.0,64,0.00,,,0.00,WUHU21623XXSP,2013-07-02 16:17:00,
2013-07-02 11:22:00,84.9,71.4,29.98,North,0,0.0,0.0,64,0.00,,,0.00,WUHU21623XXSP,2013-07-02 16:22:00,
2013-07-02 11:27:00,85.6,72.2,29.98,North,0,0.0,0.0,64,0.00,,,0.00,WUHU21623XXSP,2013-07-02 16:27:00,
2013-07-02 11:32:00,85.8,70.8,29.98,North,0,0.0,0.0,61,0.00,,,0.00,WUHU21623XXSP,2013-07-02 16:32:00,
2013-07-02 11:37:00,85.8,70.8,29.98,North,0,0.0,0.0,61,0.00,,,0.00,WUHU21623XXSP,2013-07-02 16:37:00,
2013-07-02 11:42:00,86.4,70.7,29.98,North,0,0.0,0.0,60,0.00,,,0.00,WUHU21623XXSP,2013-07-02 16:42:00,
2013-07-02 11:47:00,86.5,70.0,29.98,North,0,0.0,0.0,58,0.00,,,0.00,WUHU21623XXSP,2013-07-02 16:47:00,
2013-07-02 11:52:00,86.7,70.7,29.98,North,0,0.0,0.0,59,0.00,,,0.00,WUHU21623XXSP,2013-07-02 16:52:00,
2013-07-02 11:57:00,87.4,70.9,29.98,North,0,0.0,0.0,58,0.00,,,0.00,WUHU21623XXSP,2013-07-02 16:57:00,
2013-07-02 12:02:00,87.6,71.1,29.98,North,0,0.0,0.0,58,0.00,,,0.00,WUHU21623XXSP,2013-07-02 17:02:00,
2013-07-02 12:07:00,88.0,70.9,29.98,North,0,0.0,0.0,57,0.00,,,0.00,WUHU21623XXSP,2013-07-02 17:07:00,
2013-07-02 12:12:00,88.5,71.3,29.98,North,0,0.0,0.0,57,0.00,,,0.00,WUHU21623XXSP,2013-07-02 17:12:00,
2013-07-02 12:17:00,89.1,72.4,29.98,North,0,0.0,0.0,58,0.00,,,0.00,WUHU21623XXSP,2013-07-02 17:17:00,
2013-07-02 12:22:00,89.4,72.0,29.98,North,0,0.0,0.0,56,0.00,,,0.00,WUHU21623XXSP,2013-07-02 17:22:00,
2013-07-02 12:27:00,89.4,71.6,29.98,North,0,0.0,0.0,56,0.00,,,0.00,WUHU21623XXSP,2013-07-02 17:27:00,
2013-07-02 12:32:00,89.4,71.6,29.97,North,0,0.0,0.0,56,0.00,,,0.00,WUHU21623XXSP,2013-07-02 17:32:00,
2013-07-02 12:37:00,89.4,71.6,29.98,North,0,0.0,0.0,56,0.00,,,0.00,WUHU21623XXSP,2013-07-02 17:37:00,
2013-07-02 12:42:00,90.0,72.5,29.97,North,0,0.0,0.0,56,0.00,,,0.00,WUHU21623XXSP,2013-07-02 17:42:00,
2013-07-02 12:47:00,90.3,72.4,29.97,North,0,0.0,0.0,56,0.00,,,0.00,WUHU21623XXSP,2013-07-02 17:47:00,
2013-07-02 12:52:00,91.0,72.5,29.97,North,0,0.0,0.0,55,0.00,,,0.00,WUHU21623XXSP,2013-07-02 17:52:00,
2013-07-02 12:57:00,91.6,71.9,29.98,North,0,0.0,0.0,53,0.00,,,0.00,WUHU21623XXSP,2013-07-02 17:57:00,
2013-07-02 13:02:00,92.1,72.4,29.97,North,0,0.0,0.0,53,0.00,,,0.00,WUHU21623XXSP,2013-07-02 18:02:00,
2013-07-02 13:07:00,93.0,72.7,29.98,North,0,0.0,0.0,52,0.00,,,0.00,WUHU21623XXSP,2013-07-02 18:07:00,
2013-07-02 13:12:00,93.2,72.3,29.98,North,0,0.0,0.0,51,0.00,,,0.00,WUHU21623XXSP,2013-07-02 18:12:00,
2013-07-02 13:17:00,93.2,71.8,29.97,North,0,0.0,0.0,50,0.00,,,0.00,WUHU21623XXSP,2013-07-02 18:17:00,
2013-07-02 13:22:00,93.0,72.2,29.97,North,0,0.0,0.0,51,0.00,,,0.00,WUHU21623XXSP,2013-07-02 18:22:00,
2013-07-02 13:27:00,93.0,72.2,29.97,North,0,0.0,0.0,52,0.00,,,0.00,WUHU21623XXSP,2013-07-02 18:27:00,
2013-07-02 13:32:00,93.0,72.2,29.97,North,0,0.0,0.0,51,0.00,,,0.00,WUHU21623XXSP,2013-07-02 18:32:00,
2013-07-02 13:37:00,93.4,71.3,29.97,North,0,0.0,0.0,49,0.00,,,0.00,WUHU21623XXSP,2013-07-02 18:37:00,
2013-07-02 13:42:00,93.4,70.6,29.96,North,0,0.0,0.0,48,0.00,,,0.00,WUHU21623XXSP,2013-07-02 18:42:00,
2013-07-02 13:47:00,92.8,70.8,29.96,North,0,0.0,0.0,49,0.00,,,0.00,WUHU21623XXSP,2013-07-02 18:47:00,
2013-07-02 13:52:00,92.3,71.0,29.96,North,0,0.0,0.0,50,0.00,,,0.00,WUHU21623XXSP,2013-07-02 18:52:00,
2013-07-02 13:57:00,91.9,71.2,29.96,North,0,0.0,0.0,51,0.00,,,0.00,WUHU21623XXSP,2013-07-02 18:57:00,
2013-07-02 14:02:00,91.6,71.4,29.95,North,0,0.0,0.0,52,0.00,,,0.00,WUHU21623XXSP,2013-07-02 19:02:00,
2013-07-02 14:07:00,91.2,71.1,29.96,North,0,0.0,0.0,52,0.00,,,0.00,WUHU21623XXSP,2013-07-02 19:07:00,
2013-07-02 14:12:00,91.2,70.5,29.95,North,0,0.0,0.0,51,0.00,,,0.00,WUHU21623XXSP,2013-07-02 19:12:00,
2013-07-02 14:17:00,91.2,70.5,29.95,North,0,0.0,0.0,51,0.00,,,0.00,WUHU21623XXSP,2013-07-02 19:17:00,
2013-07-02 14:22:00,91.2,70.5,29.95,North,0,0.0,0.0,51,0.00,,,0.00,WUHU21623XXSP,2013-07-02 19:22:00,
2013-07-02 14:27:00,91.0,70.9,29.95,North,0,0.0,0.0,52,0.00,,,0.00,WUHU21623XXSP,2013-07-02 19:27:00,
2013-07-02 14:32:00,90.5,70.4,29.95,North,0,0.0,0.0,52,0.00,,,0.00,WUHU21623XXSP,2013-07-02 19:32:00,
2013-07-02 14:37:00,90.1,70.1,29.95,North,0,0.0,0.0,52,0.00,,,0.00,WUHU21623XXSP,2013-07-02 19:37:00,
2013-07-02 14:42:00,90.1,70.6,29.95,North,0,0.0,0.0,53,0.00,,,0.00,WUHU21623XXSP,2013-07-02 19:42:00,
2013-07-02 14:47:00,90.1,70.1,29.95,North,0,0.0,0.0,52,0.00,,,0.00,WUHU21623XXSP,2013-07-02 19:47:00,
2013-07-02 14:52:00,90.5,71.0,29.95,North,0,0.0,0.0,53,0.00,,,0.00,WUHU21623XXSP,2013-07-02 19:52:00,
2013-07-02 14:57:00,91.0,71.5,29.95,North,0,0.0,0.0,53,0.00,,,0.00,WUHU21623XXSP,2013-07-02 19:57:00,
2013-07-02 15:02:00,91.0,71.5,29.95,North,0,0.0,0.0,53,0.00,,,0.00,WUHU21623XXSP,2013-07-02 20:02:00,
2013-07-02 15:07:00,90.9,71.3,29.95,North,0,0.0,0.0,53,0.00,,,0.00,WUHU21623XXSP,2013-07-02 20:07:00,
2013-07-02 15:12:00,90.7,71.7,29.95,North,0,0.0,0.0,54,0.00,,,0.00,WUHU21623XXSP,2013-07-02 20:12:00,
2013-07-02 15:17:00,90.3,71.3,29.95,North,0,0.0,0.0,54,0.00,,,0.00,WUHU21623XXSP,2013-07-02 20:17:00,
2013-07-02 15:22:00,89.8,71.4,29.95,North,0,0.0,0.0,55,0.00,,,0.00,WUHU21623XXSP,2013-07-02 20:22:00,
2013-07-02 15:27:00,89.4,71.6,29.95,North,0,0.0,0.0,56,0.00,,,0.00,WUHU21623XXSP,2013-07-02 20:27:00,
2013-07-02 15:32:00,89.2,71.5,29.95,North,0,0.0,0.0,56,0.00,,,0.00,WUHU21623XXSP,2013-07-02 20:32:00,
2013-07-02 15:37:00,89.2,72.0,29.95,North,0,0.0,0.0,57,0.00,,,0.00,WUHU21623XXSP,2013-07-02 20:37:00,
2013-07-02 15:42:00,89.4,71.6,29.95,North,0,0.0,0.0,56,0.00,,,0.00,WUHU21623XXSP,2013-07-02 20:42:00,
2013-07-02 15:47:00,89.8,71.9,29.94,North,0,0.0,0.0,56,0.00,,,0.00,WUHU21623XXSP,2013-07-02 20:47:00,
2013-07-02 15:52:00,91.0,72.0,29.94,North,0,0.0,0.0,54,0.00,,,0.00,WUHU21623XXSP,2013-07-02 20:52:00,
2013-07-02 15:57:00,91.6,72.5,29.94,North,0,0.0,0.0,54,0.00,,,0.00,WUHU21623XXSP,2013-07-02 20:57:00,
2013-07-02 16:02:00,92.1,72.4,29.95,North,0,0.0,0.0,53,0.00,,,0.00,WUHU21623XXSP,2013-07-02 21:02:00,
2013-07-02 16:07:00,92.8,72.6,29.94,North,0,0.0,0.0,52,0.00,,,0.00,WUHU21623XXSP,2013-07-02 21:07:00,
2013-07-02 16:12:00,93.0,72.7,29.95,North,0,0.0,0.0,52,0.00,,,0.00,WUHU21623XXSP,2013-07-02 21:12:00,
2013-07-02 16:17:00,93.6,73.2,29.95,North,0,0.0,0.0,52,0.00,,,0.00,WUHU21623XXSP,2013-07-02 21:17:00,
2013-07-02 16:22:00,94.3,73.4,29.94,North,0,0.0,0.0,51,0.00,,,0.00,WUHU21623XXSP,2013-07-02 21:22:00,
2013-07-02 16:27:00,94.6,73.2,29.94,North,0,0.0,0.0,50,0.00,,,0.00,WUHU21623XXSP,2013-07-02 21:27:00,
2013-07-02 16:32:00,95.0,73.6,29.94,North,0,0.0,0.0,50,0.00,,,0.00,WUHU21623XXSP,2013-07-02 21:32:00,
2013-07-02 16:37:00,94.8,73.4,29.94,North,0,0.0,0.0,50,0.00,,,0.00,WUHU21623XXSP,2013-07-02 21:37:00,
2013-07-02 16:42:00,94.8,73.4,29.93,North,0,0.0,0.0,50,0.00,,,0.00,WUHU21623XXSP,2013-07-02 21:42:00,
2013-07-02 16:47:00,94.8,73.4,29.93,North,0,0.0,0.0,50,0.00,,,0.00,WUHU21623XXSP,2013-07-02 21:47:00,
2013-07-02 16:52:00,94.8,73.2,29.94,North,0,0.0,0.0,50,0.00,,,0.00,WUHU21623XXSP,2013-07-02 21:52:00,
2013-07-02 16:57:00,94.8,73.9,29.94,North,0,0.0,0.0,51,0.00,,,0.00,WUHU21623XXSP,2013-07-02 21:57:00,
2013-07-02 17:02:00,94.8,73.9,29.94,North,0,0.0,0.0,51,0.00,,,0.00,WUHU21623XXSP,2013-07-02 22:02:00,
2013-07-02 17:07:00,95.4,73.9,29.94,North,0,0.0,0.0,50,0.00,,,0.00,WUHU21623XXSP,2013-07-02 22:07:00,
2013-07-02 17:12:00,95.4,73.9,29.94,North,0,0.0,0.0,50,0.00,,,0.00,WUHU21623XXSP,2013-07-02 22:12:00,
2013-07-02 17:17:00,95.5,74.1,29.94,North,0,0.0,0.0,50,0.00,,,0.00,WUHU21623XXSP,2013-07-02 22:17:00,
2013-07-02 17:22:00,95.7,74.2,29.94,North,0,0.0,0.0,50,0.00,,,0.00,WUHU21623XXSP,2013-07-02 22:22:00,
2013-07-02 17:27:00,96.1,74.4,29.94,North,0,0.0,0.0,50,0.00,,,0.00,WUHU21623XXSP,2013-07-02 22:27:00,
2013-07-02 17:32:00,96.1,73.9,29.94,North,0,0.0,0.0,49,0.00,,,0.00,WUHU21623XXSP,2013-07-02 22:32:00,
2013-07-02 17:37:00,96.1,73.9,29.94,North,0,0.0,0.0,49,0.00,,,0.00,WUHU21623XXSP,2013-07-02 22:37:00,
2013-07-02 17:42:00,96.1,73.9,29.94,North,0,0.0,0.0,49,0.00,,,0.00,WUHU21623XXSP,2013-07-02 22:42:00,
2013-07-02 17:47:00,96.1,73.2,29.94,North,0,0.0,0.0,48,0.00,,,0.00,WUHU21623XXSP,2013-07-02 22:47:00,
2013-07-02 17:52:00,95.9,73.7,29.94,North,0,0.0,0.0,49,0.00,,,0.00,WUHU21623XXSP,2013-07-02 22:52:00,
2013-07-02 17:57:00,95.5,73.4,29.94,North,0,0.0,0.0,49,0.00,,,0.00,WUHU21623XXSP,2013-07-02 22:57:00,
2013-07-02 18:02:00,95.2,73.4,29.95,North,0,0.0,0.0,49,0.00,,,0.00,WUHU21623XXSP,2013-07-02 23:02:00,
2013-07-02 18:07:00,94.8,72.7,29.94,North,0,0.0,0.0,49,0.00,,,0.00,WUHU21623XXSP,2013-07-02 23:07:00,
2013-07-02 18:12:00,94.6,73.2,29.94,North,0,0.0,0.0,50,0.00,,,0.00,WUHU21623XXSP,2013-07-02 23:12:00,
2013-07-02 18:17:00,94.5,73.0,29.94,North,0,0.0,0.0,50,0.00,,,0.00,WUHU21623XXSP,2013-07-02 23:17:00,
2013-07-02 18:22:00,94.1,72.7,29.95,North,0,0.0,0.0,50,0.00,,,0.00,WUHU21623XXSP,2013-07-02 23:22:00,
2013-07-02 18:27:00,93.7,72.3,29.95,North,0,0.0,0.0,50,0.00,,,0.00,WUHU21623XXSP,2013-07-02 23:27:00,
2013-07-02 18:29:00,93.6,72.1,29.95,North,0,0.0,0.0,50,0.00,,,0.00,WUHU21623XXSP,2013-07-02 23:29:00,
2013-07-02 18:34:00,93.0,71.6,29.95,North,0,0.0,0.0,50,0.00,,,0.00,WUHU21623XXSP,2013-07-02 23:34:00,
2013-07-02 18:39:00,91.9,71.2,29.96,North,0,0.0,0.0,51,0.00,,,0.00,WUHU21623XXSP,2013-07-02 23:39:00,
2013-07-02 18:44:00,91.2,70.9,29.95,North,0,0.0,0.0,52,0.00,,,0.00,WUHU21623XXSP,2013-07-02 23:44:00,
2013-07-02 18:49:00,90.5,71.0,29.96,North,0,0.0,0.0,53,0.00,,,0.00,WUHU21623XXSP,2013-07-02 23:49:00,
2013-07-02 18:54:00,89.6,70.5,29.97,North,0,0.0,0.0,54,0.00,,,0.00,WUHU21623XXSP,2013-07-02 23:54:00,
2013-07-02 18:59:00,88.9,70.1,29.96,North,0,0.0,0.0,54,0.00,,,0.00,WUHU21623XXSP,2013-07-02 23:59:00,
2013-07-02 19:01:00,88.7,70.1,29.97,North,0,0.0,0.0,55,0.00,,,0.00,WUHU21623XXSP,2013-07-03 00:01:00,
2013-07-02 19:06:00,88.3,70.1,29.97,North,0,0.0,0.0,55,0.02,,,0.02,WUHU21623XXSP,2013-07-03 00:06:00,
2013-07-02 19:11:00,87.6,69.4,29.97,North,0,0.0,0.0,55,0.02,,,0.02,WUHU21623XXSP,2013-07-03 00:11:00,
2013-07-02 19:16:00,87.1,69.5,29.98,North,0,0.0,0.0,56,0.02,,,0.02,WUHU21623XXSP,2013-07-03 00:16:00,
2013-07-02 19:21:00,86.7,69.6,29.98,North,0,0.0,0.0,57,0.02,,,0.02,WUHU21623XXSP,2013-07-03 00:21:00,
2013-07-02 19:23:00,86.5,69.5,29.98,North,0,0.0,0.0,57,0.02,,,0.02,WUHU21623XXSP,2013-07-03 00:23:00,
2013-07-02 19:24:00,86.5,69.5,29.98,North,0,0.0,0.0,57,0.02,,,0.02,WUHU21623XXSP,2013-07-03 00:24:00,
2013-07-02 19:28:00,86.2,69.1,29.98,North,0,0.0,0.0,57,0.02,,,0.02,WUHU21623XXSP,2013-07-03 00:28:00,
2013-07-02 19:33:00,85.8,70.4,29.98,North,0,0.0,0.0,60,0.02,,,0.02,WUHU21623XXSP,2013-07-03 00:33:00,
2013-07-02 19:38:00,85.1,70.2,29.98,North,0,0.0,0.0,61,0.02,,,0.02,WUHU21623XXSP,2013-07-03 00:38:00,
2013-07-02 19:43:00,84.7,69.8,29.98,North,0,0.0,0.0,61,0.02,,,0.02,WUHU21623XXSP,2013-07-03 00:43:00,
2013-07-02 19:48:00,84.4,69.5,29.98,North,0,0.0,0.0,61,0.02,,,0.02,WUHU21623XXSP,2013-07-03 00:48:00,
2013-07-02 19:53:00,84.0,69.2,29.98,North,0,0.0,0.0,61,0.02,,,0.02,WUHU21623XXSP,2013-07-03 00:53:00,
2013-07-02 19:58:00,83.7,69.3,29.98,North,0,0.0,0.0,62,0.02,,,0.02,WUHU21623XXSP,2013-07-03 00:58:00,
2013-07-02 20:00:00,83.7,69.3,29.98,North,0,0.0,0.0,62,0.02,,,0.02,WUHU21623XXSP,2013-07-03 01:00:00,
2013-07-02 20:03:00,83.3,68.9,29.98,North,0,0.0,0.0,62,0.00,,,0.02,WUHU21623XXSP,2013-07-03 01:03:00,
2013-07-02 20:08:00,83.1,68.7,29.98,North,0,0.0,0.0,62,0.00,,,0.02,WUHU21623XXSP,2013-07-03 01:08:00,
2013-07-02 20:09:00,82.8,68.4,29.98,North,0,0.0,0.0,62,0.00,,,0.02,WUHU21623XXSP,2013-07-03 01:09:00,
2013-07-02 20:14:00,82.6,68.4,29.99,North,0,0.0,0.0,62,0.00,,,0.02,WUHU21623XXSP,2013-07-03 01:14:00,
2013-07-02 20:19:00,82.4,68.5,29.99,North,0,0.0,0.0,63,0.00,,,0.02,WUHU21623XXSP,2013-07-03 01:19:00,
2013-07-02 20:24:00,82.2,68.7,29.99,North,0,0.0,0.0,64,0.00,,,0.02,WUHU21623XXSP,2013-07-03 01:24:00,
2013-07-02 20:26:00,82.0,68.6,29.98,North,0,0.0,0.0,64,0.00,,,0.02,WUHU21623XXSP,2013-07-03 01:26:00,
2013-07-02 20:31:00,81.7,68.3,29.98,North,0,0.0,0.0,64,0.00,,,0.02,WUHU21623XXSP,2013-07-03 01:31:00,
2013-07-02 20:36:00,81.5,68.7,29.98,North,0,0.0,0.0,65,0.00,,,0.02,WUHU21623XXSP,2013-07-03 01:36:00,
2013-07-02 20:41:00,81.3,68.4,29.98,North,0,0.0,0.0,66,0.00,,,0.02,WUHU21623XXSP,2013-07-03 01:41:00,
2013-07-02 20:46:00,81.1,68.7,29.98,North,0,0.0,0.0,66,0.00,,,0.02,WUHU21623XXSP,2013-07-03 01:46:00,
2013-07-02 20:49:00,81.0,68.7,29.98,North,0,0.0,0.0,66,0.00,,,0.02,WUHU21623XXSP,2013-07-03 01:49:00,
2013-07-02 20:51:00,81.0,69.0,29.98,North,0,0.0,0.0,67,0.00,,,0.02,WUHU21623XXSP,2013-07-03 01:51:00,
2013-07-02 20:56:00,80.6,68.6,29.98,North,0,0.0,0.0,67,0.00,,,0.02,WUHU21623XXSP,2013-07-03 01:56:00,
2013-07-02 21:01:00,80.4,68.5,29.98,North,0,0.0,0.0,67,0.00,,,0.02,WUHU21623XXSP,2013-07-03 02:01:00,
2013-07-02 21:06:00,80.2,69.2,29.99,North,0,0.0,0.0,69,0.00,,,0.02,WUHU21623XXSP,2013-07-03 02:06:00,
2013-07-02 21:11:00,79.9,69.3,29.99,North,0,0.0,0.0,70,0.00,,,0.02,WUHU21623XXSP,2013-07-03 02:11:00,
2013-07-02 21:17:00,79.5,68.6,29.98,North,0,0.0,0.0,69,0.00,,,0.02,WUHU21623XXSP,2013-07-03 02:17:00,
2013-07-02 21:22:00,79.3,68.3,29.99,North,0,0.0,0.0,69,0.00,,,0.02,WUHU21623XXSP,2013-07-03 02:22:00,
2013-07-02 21:27:00,79.0,68.4,29.99,North,0,0.0,0.0,70,0.00,,,0.02,WUHU21623XXSP,2013-07-03 02:27:00,
2013-07-02 21:32:00,78.6,68.0,29.99,North,0,0.0,0.0,70,0.00,,,0.02,WUHU21623XXSP,2013-07-03 02:32:00,
2013-07-02 21:37:00,78.6,68.0,29.99,North,0,0.0,0.0,70,0.00,,,0.02,WUHU21623XXSP,2013-07-03 02:37:00,
2013-07-02 21:43:00,78.4,67.9,29.99,North,0,0.0,0.0,70,0.00,,,0.02,WUHU21623XXSP,2013-07-03 02:43:00,
2013-07-02 21:46:00,78.1,67.9,30.00,North,0,0.0,0.0,71,0.00,,,0.02,WUHU21623XXSP,2013-07-03 02:46:00,
2013-07-02 21:51:00,77.9,67.7,30.00,North,0,0.0,0.0,71,0.00,,,0.02,WUHU21623XXSP,2013-07-03 02:51:00,
2013-07-02 21:56:00,77.7,68.0,30.00,North,0,0.0,0.0,72,0.00,,,0.02,WUHU21623XXSP,2013-07-03 02:56:00,
2013-07-02 22:01:00,77.5,68.2,30.00,North,0,0.0,0.0,73,0.00,,,0.02,WUHU21623XXSP,2013-07-03 03:01:00,
2013-07-02 22:04:00,77.5,68.2,30.00,North,0,0.0,0.0,73,0.00,,,0.02,WUHU21623XXSP,2013-07-03 03:04:00,
2013-07-02 22:09:00,77.4,68.0,30.00,North,0,0.0,0.0,73,0.00,,,0.02,WUHU21623XXSP,2013-07-03 03:09:00,
2013-07-02 22:14:00,77.2,67.9,30.00,North,0,0.0,0.0,73,0.00,,,0.02,WUHU21623XXSP,2013-07-03 03:14:00,
2013-07-02 22:18:00,77.0,68.1,30.00,North,0,0.0,0.0,74,0.00,,,0.02,WUHU21623XXSP,2013-07-03 03:18:00,
2013-07-02 22:22:00,76.8,68.1,30.00,North,0,0.0,0.0,73,0.00,,,0.02,WUHU21623XXSP,2013-07-03 03:22:00,
2013-07-02 22:27:00,76.8,67.9,30.00,North,0,0.0,0.0,75,0.00,,,0.02,WUHU21623XXSP,2013-07-03 03:27:00,
2013-07-02 22:32:00,76.8,68.3,30.00,North,0,0.0,0.0,75,0.00,,,0.02,WUHU21623XXSP,2013-07-03 03:32:00,
2013-07-02 22:35:00,76.8,68.3,30.00,North,0,0.0,0.0,75,0.00,,,0.02,WUHU21623XXSP,2013-07-03 03:35:00,
2013-07-02 22:39:00,76.8,68.3,30.00,North,0,0.0,0.0,75,0.00,,,0.02,WUHU21623XXSP,2013-07-03 03:39:00,
2013-07-02 22:44:00,76.8,68.3,30.00,North,0,0.0,0.0,75,0.00,,,0.02,WUHU21623XXSP,2013-07-03 03:44:00,
2013-07-02 22:49:00,76.6,68.5,30.00,North,0,0.0,0.0,76,0.00,,,0.02,WUHU21623XXSP,2013-07-03 03:49:00,
2013-07-02 22:54:00,76.6,68.5,30.01,North,0,0.0,0.0,76,0.00,,,0.02,WUHU21623XXSP,2013-07-03 03:54:00,
2013-07-02 23:00:00,76.6,68.5,30.01,North,0,0.0,0.0,76,0.00,,,0.02,WUHU21623XXSP,2013-07-03 04:00:00,
2013-07-02 23:01:00,76.6,68.5,30.00,North,0,0.0,0.0,76,0.00,,,0.02,WUHU21623XXSP,2013-07-03 04:01:00,
2013-07-02 23:03:00,76.6,68.5,30.00,North,0,0.0,0.0,76,0.00,,,0.02,WUHU21623XXSP,2013-07-03 04:03:00,
2013-07-02 23:04:00,76.6,68.5,30.00,North,0,0.0,0.0,76,0.00,,,0.02,WUHU21623XXSP,2013-07-03 04:04:00,
2013-07-02 23:09:00,76.5,68.3,30.01,North,0,0.0,0.0,77,0.00,,,0.02,WUHU21623XXSP,2013-07-03 04:09:00,
2013-07-02 23:14:00,76.3,68.5,30.01,North,0,0.0,0.0,77,0.00,,,0.02,WUHU21623XXSP,2013-07-03 04:14:00,
2013-07-02 23:19:00,76.3,68.5,30.01,North,0,0.0,0.0,77,0.00,,,0.02,WUHU21623XXSP,2013-07-03 04:19:00,
2013-07-02 23:24:00,76.3,68.5,30.01,North,0,0.0,0.0,77,0.00,,,0.02,WUHU21623XXSP,2013-07-03 04:24:00,
2013-07-02 23:29:00,76.3,68.5,30.01,North,0,0.0,0.0,77,0.00,,,0.02,WUHU21623XXSP,2013-07-03 04:29:00,
2013-07-02 23:31:00,76.3,68.5,30.01,North,0,0.0,0.0,77,0.00,,,0.02,WUHU21623XXSP,2013-07-03 04:31:00,
2013-07-02 23:32:00,76.3,68.5,30.01,North,0,0.0,0.0,77,0.00,,,0.02,WUHU21623XXSP,2013-07-03 04:32:00,
2013-07-02 23:37:00,76.3,68.5,30.01,North,0,0.0,0.0,77,0.00,,,0.02,WUHU21623XXSP,2013-07-03 04:37:00,
2013-07-02 23:42:00,76.3,68.9,30.01,North,0,0.0,0.0,78,0.00,,,0.02,WUHU21623XXSP,2013-07-03 04:42:00,
2013-07-02 23:45:00,76.3,68.9,30.01,North,0,0.0,0.0,79,0.00,,,0.02,WUHU21623XXSP,2013-07-03 04:45:00,
2013-07-02 23:47:00,76.3,69.3,30.01,North,0,0.0,0.0,78,0.00,,,0.02,WUHU21623XXSP,2013-07-03 04:47:00,
2013-07-02 23:52:00,76.1,68.8,30.01,North,0,0.0,0.0,78,0.00,,,0.02,WUHU21623XXSP,2013-07-03 04:52:00,
2013-07-02 23:53:00,76.1,68.8,30.01,North,0,0.0,0.0,78,0.00,,,0.02,WUHU21623XXSP,2013-07-03 04:53:00,
2013-07-02 23:58:00,76.1,68.8,30.01,North,0,0.0,0.0,78,0.00,,,0.02,WUHU21623XXSP,2013-07-03 04:58:00,